Location: Buckenweiler
(49.0667°N, 10.2500°E)
Time: 17:11:42
(UTC+00:00)

CENTAUR R/B - Pass Details

Date: 18 January 2026
Orbit: 629 x 1552 km, 63.4° (Epoch: 16 February)

Event Time Altitude Azimuth Distance (km) Brightness Sun altitude
Rises 05:20:16 0° 202° (SSW) 3,186 5.1 -16.8°
Reaches altitude 10° 05:22:29 10° 197° (SSW) 2,360 4.5 -16.5°
Maximum altitude 05:27:46 54° 121° (ESE) 1,114 3.2 -15.6°
Drops below altitude 10° 05:34:26 10° 47° (NE) 2,968 5.5 -14.6°
Sets 05:37:30 0° 43° (NE) 4,083 6.1 -14.1°
